Wind_Speed
23 22 23 23 23 23 23 24 26 26 27 27 28 27 25 24 24 24 24 23 22 22 21 20 19 20 20 20 21 21 22 22 22 22 21 21 21 21 21 21 22 22 22 22
24 23 24 24 24 23 24 24 26 27 27 26 26 26 25 25 24 23 22 21 20 20 20 19 19 20 20 20 20 20 21 20 20 20 19 19 19 20 20 21 21 21 22 22
26 24 25 25 24 25 23 24 25 25 26 26 25 24 24 25 24 21 20 19 19 19 19 18 18 19 20 20 20 19 18 18 17 17 18 18 18 19 19 19 19 20 20 21
27 25 26 25 24 25 23 23 24 24 25 24 24 24 23 23 23 22 20 19 19 19 18 18 18 18 18 18 18 17 17 16 15 16 16 17 17 17 17 17 18 18 19 18
27 27 26 25 24 23 23 23 23 23 23 23 23 24 23 22 21 20 19 18 18 18 17 17 17 17 17 17 16 16 16 15 14 14 14 14 14 14 15 15 15 16 16 16
26 26 26 24 23 23 23 23 22 22 22 22 22 23 21 20 19 18 17 17 17 16 16 16 16 15 15 15 14 14 14 13 12 12 12 12 13 13 13 13 14 14 14 14
26 26 26 23 23 23 23 23 23 22 22 22 22 22 20 19 17 16 15 15 15 15 15 14 14 14 14 14 13 13 13 12 12 12 11 12 12 12 12 12 12 13 13 12
26 26 24 23 24 23 21 21 22 21 21 21 20 20 17 16 15 14 13 14 13 13 13 13 12 12 12 12 12 12 12 11 11 11 10 11 11 11 11 11 12 12 11 11
26 25 25 24 23 22 21 21 20 20 20 19 19 17 15 14 14 13 13 12 12 12 12 11 11 11 11 11 10 10 11 10 9 9 9 9 10 10 10 11 11 11 11 11
26 26 25 24 21 20 20 20 18 18 18 17 16 15 14 13 12 12 12 11 11 11 11 11 11 10 10 10 10 10 10 8 8 8 8 9 9 10 10 10 11 11 11 11
26 26 25 23 20 19 20 19 18 17 16 16 15 13 13 12 11 10 10 10 10 10 10 10 10 9 8 8 8 8 8 7 8 8 8 9 10 11 11 11 12 11 12 12
25 24 24 22 19 18 18 17 17 16 15 14 13 12 11 10 10 10 9 8 8 9 9 9 8 7 7 7 8 8 8 7 8 9 9 10 10 11 12 12 12 12 12 12
23 23 22 21 19 17 16 15 15 14 13 12 11 10 9 9 9 8 7 7 8 8 8 7 6 5 5 6 7 8 8 8 9 9 9 10 11 11 11 11 12 12 12 12
21 20 19 18 17 15 14 13 13 12 11 11 9 8 8 7 7 7 7 7 7 7 7 6 5 5 5 5 6 7 7 8 8 9 9 10 10 10 10 10 11 12 12 12
19 18 17 17 16 14 13 13 12 10 9 8 8 7 6 6 6 6 7 6 6 6 6 5 4 4 5 5 6 6 7 8 8 8 9 10 10 11 11 10 11 11 11 12
18 17 16 16 15 14 13 12 10 9 8 8 7 6 5 4 5 5 5 5 5 5 4 4 4 4 5 5 6 6 7 7 8 9 9 10 11 11 11 10 11 11 11 12
18 17 15 14 13 13 12 11 9 8 7 7 6 5 5 4 4 4 4 4 4 3 3 3 3 4 5 6 6 6 7 8 8 9 10 11 11 11 11 11 11 11 11 12
17 15 13 13 13 12 11 10 8 7 6 6 5 4 4 3 2 3 3 3 3 3 3 3 3 4 5 5 6 6 7 8 9 9 10 11 11 11 11 12 12 12 12 12
17 15 14 14 13 12 11 9 8 8 6 6 4 3 2 2 1 1 2 2 2 2 3 4 4 4 4 5 5 6 8 9 9 9 10 11 11 12 12 13 13 13 13 13
17 15 14 14 14 12 11 10 9 8 7 6 5 4 3 2 1 0 1 2 3 3 3 3 4 5 5 5 6 7 8 9 10 10 11 11 12 13 13 14 14 14 14 14
18 16 15 15 14 12 11 11 9 9 8 7 6 5 3 2 2 1 1 2 3 3 3 4 4 5 5 6 7 8 9 9 10 11 11 12 13 13 14 14 14 15 15 15
17 16 16 16 14 13 13 12 10 9 9 8 7 5 3 2 1 0 0 2 3 3 3 4 5 5 6 7 7 8 9 10 10 11 11 12 13 13 13 14 15 15 15 16
17 16 16 16 15 14 13 12 10 9 8 8 7 6 4 3 1 0 1 2 2 3 4 5 5 6 6 7 8 9 9 9 10 11 11 12 13 13 14 14 15 15 16 16
18 17 16 16 14 14 14 12 11 10 9 8 7 6 5 3 2 0 1 2 2 3 4 5 6 6 7 7 8 8 9 10 11 12 12 13 14 14 15 15 16 17 17 18
19 17 17 16 15 14 13 12 11 10 9 8 7 6 5 4 2 0 1 2 2 3 4 5 6 7 7 8 8 9 10 11 12 13 14 14 15 15 15 16 17 18 19 19
20 18 18 17 16 14 13 12 11 10 9 8 8 7 5 3 2 1 1 2 3 4 5 6 7 7 8 8 9 10 11 12 13 14 15 15 16 17 18 18 19 20 20 21
20 19 18 17 16 15 14 13 12 10 9 8 7 6 5 3 2 1 0 2 3 4 5 6 7 7 8 9 10 11 12 13 14 15 16 17 17 18 19 20 20 21 22 23
Wind_Direction
289 291 291 291 291 289 289 290 291 292 291 292 294 296 298 300 300 299 301 303 302 300 300 300 300 300 300 299 298 297 297 295 293 295 293 290 286 284 285 289 290 290 290 289
289 290 290 290 290 288 288 288 289 289 291 291 294 294 295 298 300 300 301 302 301 301 300 300 299 300 301 302 302 301 300 299 299 296 293 293 291 289 289 289 290 290 290 289
290 290 290 290 293 291 288 287 288 291 293 294 293 295 299 298 300 301 301 301 300 302 302 300 301 302 304 304 306 306 303 301 299 296 293 295 295 292 291 290 290 290 290 289
290 290 289 295 296 294 295 294 292 291 293 292 292 296 298 299 300 298 298 299 301 302 303 303 303 303 305 306 307 309 307 303 299 296 298 301 299 297 295 295 294 292 290 289
289 289 290 295 297 298 296 295 294 293 295 295 296 296 296 298 300 297 297 300 303 303 303 305 305 306 307 308 308 313 313 308 303 301 300 302 304 305 304 302 301 299 295 292
288 290 293 298 297 298 296 294 295 295 296 297 297 297 299 300 299 298 299 300 304 304 304 306 308 308 309 310 313 312 315 314 309 306 307 309 312 313 313 312 310 307 301 297
284 286 290 292 293 295 292 295 295 296 297 298 298 297 299 298 298 299 299 302 305 307 308 310 311 311 312 315 319 318 318 317 315 314 312 314 315 315 317 318 319 317 313 309
279 280 285 288 290 288 289 291 292 293 295 296 298 298 298 295 297 298 297 302 305 310 311 310 312 312 315 318 321 320 318 318 319 320 319 321 322 322 324 325 325 324 322 320
274 278 281 283 286 286 288 288 290 293 294 296 298 297 294 291 295 297 297 301 304 310 314 313 317 315 318 322 324 326 324 325 331 334 336 336 334 332 332 334 333 331 330 330
270 274 276 278 281 283 286 290 293 292 291 295 297 294 293 295 296 296 296 301 306 312 317 320 321 322 324 325 325 329 332 337 344 348 352 351 350 348 345 342 338 337 338 336
267 270 272 272 274 277 281 285 289 291 290 290 291 289 292 294 299 299 300 300 305 314 320 325 326 328 333 338 340 340 344 349 350 351 350 348 347 347 347 345 343 342 342 340
266 266 270 272 273 272 274 281 286 288 287 285 285 290 295 296 295 299 300 305 313 320 325 327 331 331 335 340 345 345 348 350 349 350 348 345 344 344 346 346 347 345 343 343
263 263 262 262 265 268 272 275 278 284 284 281 286 291 292 290 291 298 303 313 318 323 327 328 332 334 336 339 343 344 345 348 346 343 345 347 347 346 345 347 349 349 345 343
258 258 256 254 259 264 266 267 270 275 278 277 282 290 294 289 291 297 301 309 315 319 325 330 337 342 338 335 340 346 347 348 349 347 348 350 352 351 349 350 349 349 349 348
252 253 253 253 254 257 259 260 261 265 268 270 273 283 288 289 293 299 304 309 312 317 326 329 337 346 349 343 338 342 348 351 354 352 354 354 351 351 352 353 353 353 354 354
246 245 244 246 248 249 251 251 252 255 260 261 266 271 278 287 297 299 303 308 314 321 327 330 341 350 351 350 342 341 348 352 354 353 353 354 353 352 352 352 350 351 352 352
237 238 239 237 240 243 242 241 242 243 247 253 257 262 272 289 305 309 314 324 330 333 334 339 345 353 353 354 350 346 345 346 346 347 351 353 355 354 354 352 350 349 348 346
230 230 228 227 227 233 232 230 225 222 226 237 244 256 259 272 298 312 322 337 352 358 359 357 353 355 358 357 355 354 353 352 351 352 353 354 355 355 355 353 350 349 348 347
220 221 223 221 218 220 221 220 217 213 216 225 226 228 235 246 273 306 321 332 345 348 356 3 3 359 358 356 352 352 351 352 353 353 352 351 351 352 352 351 349 347 344 342
216 216 217 215 213 215 216 213 210 208 208 216 214 211 212 216 223 329 350 350 344 351 0 2 1 359 356 349 345 346 346 348 350 349 347 347 347 347 347 347 347 347 345 341
212 212 211 208 208 209 209 207 207 208 207 210 212 207 201 209 229 265 310 337 345 349 350 351 351 352 350 347 348 346 344 345 345 344 342 343 343 343 343 343 343 342 342 341
207 210 210 207 206 203 205 205 207 207 205 209 206 200 190 180 185 252 320 343 351 354 348 349 351 350 346 347 350 348 345 344 344 345 345 346 346 344 342 343 342 341 341 341
204 206 207 204 202 201 201 201 200 200 201 202 202 201 194 185 187 344 345 330 348 358 355 352 350 348 348 349 346 345 348 349 350 350 350 350 349 346 344 344 344 341 341 340
201 202 202 199 198 199 198 195 194 196 195 196 197 197 195 193 206 304 8 350 347 347 350 351 351 349 348 348 349 350 352 352 352 351 349 348 347 345 343 341 339 338 337 336
196 196 195 193 192 192 194 192 191 191 192 194 196 197 194 194 203 164 29 6 1 353 351 353 352 354 354 353 353 351 350 350 348 347 345 342 342 341 338 337 335 335 334 332
191 190 191 191 190 189 190 190 191 191 190 192 193 192 190 192 182 138 26 1 358 357 355 354 355 356 355 353 351 348 346 345 343 341 340 337 336 337 336 333 333 333 333 332
188 189 189 187 186 187 190 190 189 189 190 192 191 184 187 191 184 180 315 338 344 346 346 346 349 351 351 350 348 346 344 342 340 336 336 336 335 335 335 333 332 332 332 330
Height
5819 5817 5816 5814 5812 5811 5808 5806 5803 5801 5798 5796 5794 5790 5787 5785 5783 5781 5778 5775 5773 5770 5767 5764 5762 5760 5758 5756 5754 5752 5749 5747 5745 5743 5742 5740 5739 5739 5738 5737 5736 5734 5733 5732
5813 5812 5810 5807 5806 5805 5803 5801 5798 5796 5793 5790 5787 5785 5783 5780 5778 5776 5773 5770 5768 5765 5762 5760 5758 5756 5754 5752 5750 5747 5744 5742 5741 5739 5737 5736 5735 5733 5732 5731 5730 5728 5727 5726
5806 5806 5803 5801 5801 5799 5796 5795 5792 5790 5788 5784 5782 5779 5777 5775 5773 5771 5768 5766 5763 5761 5759 5756 5754 5752 5750 5748 5745 5743 5740 5739 5737 5735 5733 5731 5730 5729 5727 5726 5724 5723 5722 5720
5799 5799 5796 5798 5795 5793 5791 5789 5787 5784 5782 5779 5777 5774 5772 5770 5768 5766 5764 5762 5760 5757 5755 5753 5751 5749 5746 5744 5742 5739 5737 5735 5733 5731 5730 5728 5726 5724 5723 5721 5719 5718 5716 5715
5793 5791 5789 5791 5789 5787 5785 5783 5781 5778 5776 5774 5772 5769 5767 5766 5763 5761 5759 5757 5755 5753 5751 5749 5747 5745 5743 5741 5738 5736 5734 5731 5730 5728 5726 5725 5723 5721 5719 5717 5715 5713 5712 5710
5787 5785 5784 5786 5783 5781 5780 5778 5776 5773 5771 5769 5767 5765 5763 5761 5759 5757 5755 5753 5751 5749 5747 5745 5744 5742 5740 5738 5735 5733 5731 5729 5727 5725 5723 5722 5720 5718 5716 5714 5712 5710 5708 5706
5781 5779 5778 5779 5777 5776 5776 5774 5771 5768 5766 5764 5762 5760 5758 5756 5754 5753 5751 5749 5748 5746 5744 5742 5740 5739 5737 5735 5733 5730 5728 5726 5724 5723 5721 5719 5718 5716 5714 5712 5710 5708 5705 5703
5775 5774 5775 5773 5772 5771 5769 5767 5764 5762 5761 5759 5757 5755 5753 5752 5750 5749 5748 5746 5745 5743 5741 5739 5738 5736 5735 5733 5731 5729 5727 5725 5723 5721 5719 5717 5716 5714 5712 5710 5708 5706 5704 5702
5769 5769 5768 5767 5765 5764 5762 5761 5759 5757 5756 5754 5752 5751 5749 5748 5747 5746 5745 5744 5742 5741 5739 5737 5736 5734 5733 5731 5729 5727 5725 5723 5722 5720 5718 5716 5714 5713 5711 5709 5707 5705 5703 5701
5759 5761 5760 5760 5760 5759 5757 5755 5754 5753 5752 5750 5748 5747 5746 5745 5744 5744 5743 5741 5740 5739 5737 5736 5734 5733 5731 5729 5727 5726 5724 5722 5721 5719 5718 5716 5714 5712 5710 5709 5706 5704 5702 5700
5751 5753 5753 5753 5753 5753 5752 5751 5750 5749 5748 5747 5745 5744 5743 5742 5742 5741 5740 5739 5738 5737 5735 5734 5733 5731 5730 5728 5726 5725 5723 5722 5721 5719 5717 5716 5714 5712 5710 5708 5706 5703 5701 5699
5744 5746 5746 5745 5747 5748 5747 5747 5746 5746 5745 5743 5741 5740 5739 5739 5739 5738 5738 5737 5736 5735 5734 5733 5731 5730 5729 5727 5726 5725 5723 5722 5720 5719 5717 5715 5713 5711 5709 5707 5705 5703 5700 5698
5736 5738 5739 5741 5742 5742 5742 5742 5742 5742 5741 5740 5739 5738 5737 5737 5737 5736 5736 5735 5734 5733 5732 5731 5730 5729 5728 5727 5725 5724 5723 5721 5720 5718 5717 5715 5713 5711 5709 5707 5705 5702 5700 5698
5729 5730 5732 5735 5736 5737 5737 5737 5738 5738 5738 5737 5737 5736 5736 5735 5735 5734 5734 5733 5732 5731 5731 5730 5729 5728 5727 5726 5725 5724 5722 5721 5719 5718 5716 5714 5712 5710 5708 5707 5705 5702 5700 5697
5723 5724 5726 5729 5731 5732 5733 5734 5734 5735 5735 5735 5734 5734 5734 5733 5733 5732 5732 5731 5731 5730 5729 5729 5728 5727 5726 5725 5724 5723 5722 5721 5719 5718 5716 5714 5712 5710 5708 5706 5704 5702 5700 5698
5717 5720 5722 5724 5726 5728 5730 5730 5731 5731 5732 5732 5732 5732 5732 5731 5731 5731 5730 5730 5729 5729 5729 5728 5727 5726 5726 5725 5724 5723 5722 5721 5719 5718 5716 5714 5712 5710 5708 5706 5704 5702 5700 5698
5713 5715 5717 5720 5722 5724 5726 5727 5728 5728 5729 5729 5730 5730 5730 5730 5730 5730 5729 5729 5728 5728 5728 5727 5727 5726 5725 5725 5724 5723 5722 5721 5719 5718 5716 5714 5712 5710 5708 5706 5704 5702 5700 5697
5708 5710 5713 5716 5718 5721 5723 5725 5725 5726 5727 5728 5728 5729 5729 5729 5729 5729 5729 5728 5728 5728 5727 5727 5726 5726 5725 5724 5723 5722 5721 5720 5719 5717 5716 5714 5712 5710 5708 5706 5703 5701 5699 5697
5704 5707 5710 5713 5715 5718 5720 5722 5723 5724 5725 5726 5727 5728 5728 5728 5728 5728 5728 5728 5728 5727 5727 5726 5726 5725 5725 5724 5724 5723 5722 5720 5718 5717 5715 5713 5711 5709 5707 5705 5703 5700 5698 5696
5701 5704 5707 5710 5712 5715 5717 5719 5721 5722 5723 5725 5726 5726 5727 5727 5728 5728 5728 5728 5727 5727 5727 5726 5726 5725 5725 5724 5723 5722 5721 5720 5718 5716 5715 5713 5711 5709 5706 5704 5702 5700 5697 5695
5698 5701 5704 5707 5710 5712 5715 5717 5719 5721 5722 5723 5724 5725 5726 5726 5727 5727 5727 5727 5727 5727 5726 5726 5726 5725 5725 5724 5723 5722 5721 5719 5717 5716 5714 5712 5710 5708 5705 5703 5701 5699 5696 5694
5695 5699 5702 5705 5707 5710 5713 5715 5717 5719 5720 5722 5723 5724 5725 5726 5726 5726 5727 5727 5727 5727 5726 5726 5726 5725 5724 5723 5722 5721 5720 5718 5717 5715 5713 5711 5709 5707 5704 5702 5700 5698 5695 5693
5693 5696 5700 5703 5706 5708 5711 5713 5715 5717 5719 5720 5722 5723 5725 5726 5726 5726 5726 5727 5727 5727 5726 5726 5726 5725 5724 5723 5722 5721 5719 5718 5716 5714 5712 5710 5708 5706 5704 5701 5699 5696 5693 5691
5691 5694 5698 5701 5704 5707 5709 5712 5714 5716 5718 5719 5721 5723 5724 5725 5726 5726 5726 5727 5727 5727 5726 5726 5725 5725 5724 5723 5721 5720 5719 5717 5715 5714 5712 5710 5707 5705 5702 5700 5697 5695 5692 5689
5689 5692 5696 5699 5703 5706 5708 5711 5713 5715 5717 5719 5720 5722 5723 5724 5725 5726 5726 5726 5727 5727 5726 5726 5725 5724 5723 5722 5721 5719 5718 5716 5715 5713 5711 5708 5706 5704 5701 5698 5695 5692 5689 5686
5687 5691 5694 5698 5701 5704 5707 5710 5712 5714 5716 5718 5720 5721 5723 5724 5725 5725 5726 5726 5726 5726 5726 5725 5725 5724 5723 5722 5720 5719 5717 5716 5714 5712 5709 5707 5704 5702 5699 5696 5693 5689 5686 5683
5685 5689 5693 5696 5700 5703 5706 5708 5711 5713 5716 5718 5719 5721 5722 5723 5724 5725 5726 5726 5726 5726 5726 5725 5725 5723 5722 5721 5720 5718 5716 5714 5712 5710 5708 5705 5702 5699 5696 5693 5690 5686 5683 5679